This is the latest recevied weather packets stored in our database for station/object SP1BMW-13. If no packets are shown the sender has not sent any weather packets the latest 1 day(s).
| Time | Temp. | Humidity | Pressure | Rain* | Wind** | Luminosity | Snow |
|---|---|---|---|---|---|---|---|
| 1778015686 | 11.11° C | 92% | 1008 hPa | 0 mm | 0.89 m/s, 38° | 0 W/m² | - |
| 1778015626 | 11.11° C | 92% | 1008.1 hPa | 0 mm | 0.45 m/s, 47° | 0 W/m² | - |
| 1778015567 | 11.11° C | 92% | 1008.1 hPa | 0 mm | 0.45 m/s, 34° | 0 W/m² | - |
| 1778015506 | 11.11° C | 92% | 1008.1 hPa | 0 mm | 0 m/s | 0 W/m² | - |
| 1778015446 | 11.11° C | 92% | 1007.9 hPa | 0 mm | 0.89 m/s, 17° | 0 W/m² | - |
| 1778015387 | 11.11° C | 92% | 1008.1 hPa | 0 mm | 0.89 m/s, 328° | 0 W/m² | - |
| 1778015326 | 11.11° C | 92% | 1008.1 hPa | 0 mm | 0 m/s | 0 W/m² | - |
| 1778015266 | 11.11° C | 92% | 1008 hPa | 0 mm | 0.89 m/s, 6° | 0 W/m² | - |
| 1778015206 | 11.11° C | 92% | 1008.3 hPa | 0 mm | 0.89 m/s, 61° | 0 W/m² | - |
| 1778015146 | 11.11° C | 92% | 1008 hPa | 0 mm | 0.45 m/s, 46° | 0 W/m² | - |
| 1778015086 | 11.11° C | 92% | 1008.2 hPa | 0 mm | 0.45 m/s, 318° | 0 W/m² | - |
| 1778015026 | 11.11° C | 92% | 1008 hPa | 0 mm | 0 m/s | 0 W/m² | - |
| 1778014967 | 11.11° C | 92% | 1007.9 hPa | 0 mm | 0 m/s | 0 W/m² | - |
| 1778014907 | 11.11° C | 92% | 1008 hPa | 0 mm | 0.45 m/s, 28° | 0 W/m² | - |
| 1778014846 | 11.11° C | 92% | 1008 hPa | 0 mm | 0.89 m/s, 306° | 0 W/m² | - |
| 1778014786 | 11.11° C | 92% | 1008.2 hPa | 0 mm | 0.89 m/s, 333° | 0 W/m² | - |
| 1778014726 | 11.11° C | 92% | 1008.1 hPa | 0 mm | 0.45 m/s, 338° | 0 W/m² | - |
| 1778014667 | 11.11° C | 92% | 1008 hPa | 0 mm | 0.89 m/s, 1° | 0 W/m² | - |
| 1778014606 | 11.11° C | 92% | 1008 hPa | 0 mm | 0.89 m/s, 2° | 0 W/m² | - |
| 1778014546 | 11.11° C | 92% | 1008 hPa | 0 mm | 0.89 m/s, 67° | 0 W/m² | - |
| 1778014486 | 11.11° C | 92% | 1007.9 hPa | 0 mm | 0.45 m/s, 348° | 0 W/m² | - |
| 1778014427 | 11.11° C | 92% | 1008 hPa | 0 mm | 0 m/s | 0 W/m² | - |
| 1778014366 | 11.67° C | 92% | 1008.2 hPa | 0 mm | 0.45 m/s, 64° | 0 W/m² | - |
| 1778014307 | 11.67° C | 92% | 1008.1 hPa | 0 mm | 0.45 m/s, 26° | 0 W/m² | - |
| 1778014246 | 11.67° C | 92% | 1008.1 hPa | 0 mm | 0.45 m/s, 330° | 0 W/m² | - |
* Rain latest hour (hover to see other rain measurements)
** Current wind speed in m/s (hover to see current wind gust speed)